Macapa, Brazil

6:34 PM -03 on April 28, 2017 (GMT -0300)
Macapa International

Weather History for SBMQ - May, 2014

Change the Weather History Date:

Monday, May 12, 2014

  Actual Average Record
Temperature  
Mean Temperature 81 °F -  
Max Temperature 87 °F 86 °F 91 °F (1997)
Min Temperature 75 °F 74 °F 73 °F (1997)
Cooling Degree Days 16    
Growing Degree Days 31 (Base 50)    
Moisture  
Dew Point 77 °F    
Average Humidity 84    
Maximum Humidity 100    
Minimum Humidity 59    
Precipitation  
Precipitation 0.00 in 0.39 in - ()
Sea Level Pressure  
Sea Level Pressure 29.86 in    
Wind  
Wind Speed 4 mph ()    
Max Wind Speed 10 mph    
Max Gust Speed -    
Visibility 5.9 miles    
Events      
Averages and records for this station are not official NWS values.
T = Trace of Precipitation, MM = Missing Value Source: Averaged Metar Reports

Daily Weather History Graph

Daily Weather History Graph

Search for Another Location

Airport or City:

Trip Planner

Search our weather history database for the weather conditions in past years. The results will help you decide how hot, cold, wet, or windy it might be!

Date:

Astronomy

May. 12, 2014 Rise Set
Actual Time 6:17 AM -03 6:24 PM -03
Civil Twilight 5:55 AM -03 6:45 PM -03
Nautical Twilight 5:29 AM -03 7:11 PM -03
Astronomical Twilight 5:04 AM -03 7:36 PM -03
Moon 4:43 PM -03 (5/12) 4:17 AM -03 (5/12)
Length of Visible Light 12h 50m
Length of Day
12h 07m
Waxing Gibbous, 94% of the Moon is Illuminated
May 12
Waxing Gibbous
May 14
Full
May 21
Last Quarter
May 28
New
Jun 5
First Quarter

Hourly Weather History & Observations

Time (-03) Temp. Heat Index Dew Point Humidity Pressure Visibility Wind Dir Wind Speed Gust Speed Precip Events Conditions
12:00 AM 78.8 °F - 77.0 °F 94% 29.89 in 6.2 mi NNE 3.5 mph - N/A   Scattered Clouds
1:00 AM 78.8 °F - 77.0 °F 94% 29.89 in 6.2 mi North 3.5 mph - N/A   Mostly Cloudy
2:00 AM 78.8 °F - 77.0 °F 94% 29.86 in 6.2 mi North 3.5 mph - N/A   Mostly Cloudy
3:00 AM 77.0 °F - 77.0 °F 100% 29.83 in 6.2 mi NNE 3.5 mph - N/A   Mostly Cloudy
4:00 AM 77.0 °F - 77.0 °F 100% 29.83 in 6.2 mi WNW 3.5 mph - N/A   Scattered Clouds
4:13 AM 77.0 °F - 77.0 °F 100% 29.83 in 6.2 mi WNW 2.3 mph - N/A   Mostly Cloudy
5:00 AM 77.0 °F - 77.0 °F 100% 29.83 in 6.2 mi NNW 4.6 mph - N/A   Mostly Cloudy
6:00 AM 77.0 °F - 75.2 °F 94% 29.86 in 6.2 mi NNE 3.5 mph - N/A   Mostly Cloudy
7:00 AM 77.0 °F - 77.0 °F 100% 29.86 in 6.2 mi ENE 4.6 mph - N/A   Mostly Cloudy
8:00 AM 80.6 °F 87.1 °F 77.0 °F 89% 29.89 in 6.2 mi North 4.6 mph - N/A   Mostly Cloudy
9:00 AM 80 °F - 76 °F 85% 29.88 in 6 mi Calm Calm - -   Partly Cloudy
9:00 AM 86.0 °F 95.1 °F 75.2 °F 70% 29.92 in 6.2 mi NNE 5.8 mph - N/A   Mostly Cloudy
10:00 AM 87.8 °F 99.7 °F 77.0 °F 70% 29.92 in 6.2 mi East 5.8 mph - N/A   Mostly Cloudy
11:00 AM 87.8 °F 99.7 °F 77.0 °F 70% 29.92 in 6.2 mi East 4.6 mph - N/A   Mostly Cloudy
12:00 PM 93.2 °F 107.2 °F 77.0 °F 59% 29.89 in 6.2 mi East 9.2 mph - N/A   Mostly Cloudy
1:00 PM 93.2 °F 110.2 °F 78.8 °F 63% 29.86 in 6.2 mi East 10.4 mph - N/A   Scattered Clouds
2:00 PM 87.8 °F 97.6 °F 75.2 °F 66% 29.83 in 6.2 mi East 10.4 mph - N/A   Scattered Clouds
3:00 PM 83 °F - 77 °F 77% 29.81 in 2 mi NE 2.3 mph - -   Partly Cloudy
3:00 PM 86.0 °F 95.1 °F 75.2 °F 70% 29.80 in 6.2 mi ESE 10.4 mph - N/A   Mostly Cloudy
4:00 PM 91.4 °F 105.1 °F 77.0 °F 63% 29.77 in 6.2 mi East 6.9 mph - N/A   Scattered Clouds
5:00 PM 86.0 °F 95.1 °F 75.2 °F 70% 29.80 in 6.2 mi East 4.6 mph - N/A   Mostly Cloudy
6:00 PM 84.2 °F 94.1 °F 77.0 °F 79% 29.80 in 6.2 mi ESE 4.6 mph - N/A   Mostly Cloudy
7:00 PM 80.6 °F 88.1 °F 78.8 °F 94% 29.83 in 6.2 mi East 4.6 mph - N/A   Overcast
8:00 PM 80.6 °F 87.1 °F 77.0 °F 89% 29.86 in 6.2 mi ESE 4.6 mph - N/A   Overcast
9:00 PM 80 °F - 77 °F 86% 29.86 in 2 mi Calm Calm - -   Overcast
9:00 PM 80.6 °F 87.1 °F 77.0 °F 89% 29.89 in 6.2 mi SE 5.8 mph - N/A   Overcast
10:00 PM 80.6 °F 87.1 °F 77.0 °F 89% 29.89 in 6.2 mi East 4.6 mph - N/A   Mostly Cloudy
11:00 PM 80.6 °F 87.1 °F 77.0 °F 89% 29.92 in 6.2 mi ESE 2.3 mph - N/A   Mostly Cloudy